Time,TemperatureF,DewpointF,PressureIn,WindDirection,WindDirectionDegrees,WindSpeedMPH,WindSpeedGustMPH,Humidity,HourlyPrecipIn,Conditions,Clouds,dailyrainin,SolarRadiationWatts/m^2,SoftwareType,DateUTC
2013-04-11 00:22:00,63.0,63.0,-100.00,ESE,103,7.0,11.0,99,0.31,,,1.46,1.000000,,2013-04-11 05:22:00,
2013-04-11 00:32:00,63.0,63.0,-100.00,ESE,103,7.0,11.0,99,0.31,,,1.46,1.000000,,2013-04-11 05:32:00,
2013-04-11 00:42:00,63.0,63.0,-100.00,ESE,103,7.0,11.0,99,0.31,,,1.46,1.000000,,2013-04-11 05:42:00,
2013-04-11 00:52:00,63.0,63.0,-100.00,ESE,103,7.0,11.0,99,0.31,,,1.46,1.000000,,2013-04-11 05:52:00,
2013-04-11 01:22:00,57.0,56.0,-100.00,SSW,200,9.0,21.0,96,0.03,,,1.49,1.000000,,2013-04-11 06:22:00,
2013-04-11 01:32:00,57.0,56.0,-100.00,SSW,200,9.0,21.0,96,0.03,,,1.49,1.000000,,2013-04-11 06:32:00,
2013-04-11 01:42:00,57.0,56.0,-100.00,SSW,200,9.0,21.0,96,0.03,,,1.49,1.000000,,2013-04-11 06:42:00,
2013-04-11 01:52:00,57.0,56.0,-100.00,SSW,200,9.0,21.0,96,0.03,,,1.49,1.000000,,2013-04-11 06:52:00,
2013-04-11 02:22:00,52.0,51.0,-100.00,SSW,197,7.0,15.0,96,0.00,,,1.49,1.000000,,2013-04-11 07:22:00,
2013-04-11 02:32:00,52.0,51.0,-100.00,SSW,197,7.0,15.0,96,0.00,,,1.49,1.000000,,2013-04-11 07:32:00,
2013-04-11 02:42:00,52.0,51.0,-100.00,SSW,197,7.0,15.0,96,0.00,,,1.49,1.000000,,2013-04-11 07:42:00,
2013-04-11 02:52:00,52.0,51.0,-100.00,SSW,197,7.0,15.0,96,0.00,,,1.49,1.000000,,2013-04-11 07:52:00,
2013-04-11 03:22:00,50.0,49.0,-100.00,SW,222,6.0,15.0,95,0.00,,,1.49,1.000000,,2013-04-11 08:22:00,
2013-04-11 03:32:00,50.0,49.0,-100.00,SW,222,6.0,15.0,95,0.00,,,1.49,1.000000,,2013-04-11 08:32:00,
2013-04-11 03:42:00,50.0,49.0,-100.00,SW,222,6.0,15.0,95,0.00,,,1.49,1.000000,,2013-04-11 08:42:00,
2013-04-11 03:52:00,50.0,49.0,-100.00,SW,222,6.0,15.0,95,0.00,,,1.49,1.000000,,2013-04-11 08:52:00,
2013-04-11 04:22:00,48.0,46.0,-100.00,SSW,196,6.0,13.0,94,0.00,,,1.49,1.000000,,2013-04-11 09:22:00,
2013-04-11 04:33:00,48.0,46.0,-100.00,SSW,196,6.0,13.0,94,0.00,,,1.49,1.000000,,2013-04-11 09:33:00,
2013-04-11 04:43:00,48.0,46.0,-100.00,SSW,196,6.0,13.0,94,0.00,,,1.49,1.000000,,2013-04-11 09:43:00,
2013-04-11 04:52:00,48.0,46.0,-100.00,SSW,196,6.0,13.0,94,0.00,,,1.49,1.000000,,2013-04-11 09:52:00,
2013-04-11 05:23:00,47.0,45.0,-100.00,SSW,207,6.0,13.0,91,0.00,,,1.49,1.000000,,2013-04-11 10:23:00,
2013-04-11 05:32:00,47.0,45.0,-100.00,SSW,207,6.0,13.0,91,0.00,,,1.49,1.000000,,2013-04-11 10:32:00,
2013-04-11 05:42:00,47.0,45.0,-100.00,SSW,207,6.0,13.0,91,0.00,,,1.49,1.000000,,2013-04-11 10:42:00,
2013-04-11 05:52:00,47.0,45.0,-100.00,SSW,207,6.0,13.0,91,0.00,,,1.49,1.000000,,2013-04-11 10:52:00,
2013-04-11 06:23:00,45.0,42.0,-100.00,SSW,213,9.0,14.0,89,0.00,,,1.49,1.000000,,2013-04-11 11:23:00,
2013-04-11 06:32:00,45.0,42.0,-100.00,SSW,213,9.0,14.0,89,0.00,,,1.49,1.000000,,2013-04-11 11:32:00,
2013-04-11 06:42:00,45.0,42.0,-100.00,SSW,213,9.0,14.0,89,0.00,,,1.49,1.000000,,2013-04-11 11:42:00,
2013-04-11 06:52:00,45.0,42.0,-100.00,SSW,213,9.0,14.0,89,0.00,,,1.49,1.000000,,2013-04-11 11:52:00,
2013-04-11 07:22:00,45.0,42.0,-100.00,SSW,207,6.0,12.0,89,0.00,,,-99.99,1.000000,,2013-04-11 12:22:00,
2013-04-11 07:32:00,45.0,42.0,-100.00,SSW,207,6.0,12.0,89,0.00,,,-99.99,1.000000,,2013-04-11 12:32:00,
2013-04-11 07:42:00,45.0,42.0,-100.00,SSW,207,6.0,12.0,89,0.00,,,-99.99,1.000000,,2013-04-11 12:42:00,
2013-04-11 07:52:00,45.0,42.0,-100.00,SSW,207,6.0,12.0,89,0.00,,,-99.99,1.000000,,2013-04-11 12:52:00,
2013-04-11 07:53:00,45.0,42.0,-100.00,SW,223,6.0,15.0,88,0.00,,,1.49,19.000000,,2013-04-11 12:53:00,
2013-04-11 08:23:00,45.0,42.0,-100.00,SW,223,6.0,15.0,88,0.00,,,1.49,19.000000,,2013-04-11 13:23:00,
2013-04-11 08:32:00,45.0,42.0,-100.00,SW,223,6.0,15.0,88,0.00,,,1.49,19.000000,,2013-04-11 13:32:00,
2013-04-11 08:43:00,45.0,42.0,-100.00,SW,223,6.0,15.0,88,0.00,,,1.49,19.000000,,2013-04-11 13:43:00,
2013-04-11 09:22:00,45.0,41.0,-100.00,SW,227,6.0,14.0,85,0.00,,,1.49,68.000000,,2013-04-11 14:22:00,
2013-04-11 09:32:00,45.0,41.0,-100.00,SW,227,6.0,14.0,85,0.00,,,1.49,68.000000,,2013-04-11 14:32:00,
2013-04-11 09:42:00,45.0,41.0,-100.00,SW,227,6.0,14.0,85,0.00,,,1.49,68.000000,,2013-04-11 14:42:00,
2013-04-11 09:52:00,45.0,41.0,-100.00,SW,227,6.0,14.0,85,0.00,,,1.49,68.000000,,2013-04-11 14:52:00,
2013-04-11 12:23:00,47.0,42.0,-100.00,South,171,9.0,14.0,82,-99.99,,,1.49,188.000000,,2013-04-11 17:23:00,
2013-04-11 12:33:00,47.0,42.0,-100.00,South,171,9.0,14.0,82,-99.99,,,1.49,188.000000,,2013-04-11 17:33:00,
2013-04-11 12:43:00,47.0,42.0,-100.00,South,171,9.0,14.0,82,-99.99,,,1.49,188.000000,,2013-04-11 17:43:00,
2013-04-11 12:52:00,47.0,42.0,-100.00,South,171,9.0,14.0,82,-99.99,,,1.49,188.000000,,2013-04-11 17:52:00,
2013-04-11 13:13:00,46.0,41.0,-100.00,South,185,7.0,16.0,81,0.00,,,1.49,238.000000,,2013-04-11 18:13:00,
2013-04-11 13:23:00,46.0,41.0,-100.00,South,185,7.0,16.0,81,0.00,,,1.49,238.000000,,2013-04-11 18:23:00,
2013-04-11 13:33:00,46.0,41.0,-100.00,South,185,7.0,16.0,81,0.00,,,1.49,238.000000,,2013-04-11 18:33:00,
2013-04-11 13:42:00,46.0,41.0,-100.00,South,185,7.0,16.0,81,0.00,,,1.49,238.000000,,2013-04-11 18:42:00,
2013-04-11 13:52:00,46.0,41.0,-100.00,South,185,7.0,16.0,81,0.00,,,1.49,238.000000,,2013-04-11 18:52:00,
2013-04-11 14:22:00,48.0,40.0,-100.00,South,187,5.0,15.0,73,0.00,,,-99.99,375.000000,,2013-04-11 19:22:00,
2013-04-11 14:32:00,48.0,40.0,-100.00,South,187,5.0,15.0,73,0.00,,,-99.99,375.000000,,2013-04-11 19:32:00,
2013-04-11 14:43:00,48.0,40.0,-100.00,South,187,5.0,15.0,73,0.00,,,-99.99,375.000000,,2013-04-11 19:43:00,
2013-04-11 14:52:00,48.0,40.0,-100.00,South,187,5.0,15.0,73,0.00,,,-99.99,375.000000,,2013-04-11 19:52:00,
2013-04-11 15:13:00,50.0,39.0,-100.00,SSW,194,6.0,15.0,66,0.00,,,1.49,605.000000,,2013-04-11 20:13:00,
2013-04-11 15:22:00,50.0,39.0,-100.00,SSW,194,6.0,15.0,66,0.00,,,1.49,605.000000,,2013-04-11 20:22:00,
2013-04-11 15:33:00,50.0,39.0,-100.00,SSW,194,6.0,15.0,66,0.00,,,1.49,605.000000,,2013-04-11 20:33:00,
2013-04-11 15:42:00,50.0,39.0,-100.00,SSW,194,6.0,15.0,66,0.00,,,1.49,605.000000,,2013-04-11 20:42:00,
2013-04-11 15:52:00,50.0,39.0,-100.00,SSW,194,6.0,15.0,66,0.00,,,1.49,605.000000,,2013-04-11 20:52:00,
2013-04-11 15:53:00,52.0,39.0,-100.00,SW,221,9.0,15.0,62,0.00,,,1.49,538.000000,,2013-04-11 20:53:00,
2013-04-11 16:12:00,52.0,39.0,-100.00,SW,221,9.0,15.0,62,0.00,,,1.49,538.000000,,2013-04-11 21:12:00,
2013-04-11 16:22:00,52.0,39.0,-100.00,SW,221,9.0,15.0,62,0.00,,,1.49,538.000000,,2013-04-11 21:22:00,
2013-04-11 16:33:00,52.0,39.0,-100.00,SW,221,9.0,15.0,62,0.00,,,1.49,538.000000,,2013-04-11 21:33:00,
2013-04-11 16:42:00,52.0,39.0,-100.00,SW,221,9.0,15.0,62,0.00,,,1.49,538.000000,,2013-04-11 21:42:00,
2013-04-11 17:13:00,54.0,37.0,-100.00,SSW,202,6.0,16.0,53,0.00,,,1.49,627.000000,,2013-04-11 22:13:00,
2013-04-11 17:23:00,54.0,37.0,-100.00,SSW,202,6.0,16.0,53,0.00,,,1.49,627.000000,,2013-04-11 22:23:00,
2013-04-11 17:33:00,54.0,37.0,-100.00,SSW,202,6.0,16.0,53,0.00,,,1.49,627.000000,,2013-04-11 22:33:00,
2013-04-11 17:44:00,54.0,37.0,-100.00,SSW,202,6.0,16.0,53,0.00,,,1.49,627.000000,,2013-04-11 22:44:00,
2013-04-11 17:52:00,54.0,37.0,-100.00,SSW,202,6.0,16.0,53,0.00,,,1.49,627.000000,,2013-04-11 22:52:00,
2013-04-11 17:53:00,55.0,37.0,-100.00,WSW,237,4.0,14.0,51,0.00,,,1.49,450.000000,,2013-04-11 22:53:00,
2013-04-11 18:23:00,55.0,37.0,-100.00,WSW,237,4.0,14.0,51,0.00,,,1.49,450.000000,,2013-04-11 23:23:00,
2013-04-11 18:32:00,55.0,37.0,-100.00,WSW,237,4.0,14.0,51,0.00,,,1.49,450.000000,,2013-04-11 23:32:00,
2013-04-11 18:42:00,55.0,37.0,-100.00,WSW,237,4.0,14.0,51,0.00,,,1.49,450.000000,,2013-04-11 23:42:00,
2013-04-11 19:12:00,54.0,35.0,-100.00,SW,215,4.0,9.0,49,0.00,,,1.49,219.000000,,2013-04-12 00:12:00,
2013-04-11 19:22:00,54.0,35.0,-100.00,SW,215,4.0,9.0,49,0.00,,,1.49,219.000000,,2013-04-12 00:22:00,
2013-04-11 19:32:00,54.0,35.0,-100.00,SW,215,4.0,9.0,49,0.00,,,1.49,219.000000,,2013-04-12 00:32:00,
2013-04-11 19:42:00,54.0,35.0,-100.00,SW,215,4.0,9.0,49,0.00,,,1.49,219.000000,,2013-04-12 00:42:00,
2013-04-11 19:52:00,54.0,35.0,-100.00,SW,215,4.0,9.0,49,0.00,,,1.49,219.000000,,2013-04-12 00:52:00,
2013-04-11 20:22:00,51.0,33.0,-100.00,SSW,212,5.0,11.0,50,0.00,,,1.49,17.000000,,2013-04-12 01:22:00,
2013-04-11 20:32:00,51.0,33.0,-100.00,SSW,212,5.0,11.0,50,0.00,,,1.49,17.000000,,2013-04-12 01:32:00,
2013-04-11 20:42:00,51.0,33.0,-100.00,SSW,212,5.0,11.0,50,0.00,,,1.49,17.000000,,2013-04-12 01:42:00,
2013-04-11 20:52:00,51.0,33.0,-100.00,SSW,212,5.0,11.0,50,0.00,,,1.49,17.000000,,2013-04-12 01:52:00,
2013-04-11 21:22:00,48.0,33.0,-100.00,SW,224,6.0,14.0,55,0.00,,,0.61,1.000000,,2013-04-12 02:22:00,
2013-04-11 21:32:00,48.0,33.0,-100.00,SW,224,6.0,14.0,55,0.00,,,0.61,1.000000,,2013-04-12 02:32:00,
2013-04-11 21:42:00,48.0,33.0,-100.00,SW,224,6.0,14.0,55,0.00,,,0.61,1.000000,,2013-04-12 02:42:00,
2013-04-11 21:52:00,48.0,33.0,-100.00,SW,224,6.0,14.0,55,0.00,,,0.61,1.000000,,2013-04-12 02:52:00,
2013-04-11 22:22:00,46.0,32.0,-100.00,SW,225,6.0,8.0,59,0.00,,,0.42,1.000000,,2013-04-12 03:22:00,
2013-04-11 22:33:00,46.0,32.0,-100.00,SW,225,6.0,8.0,59,0.00,,,0.42,1.000000,,2013-04-12 03:33:00,
2013-04-11 22:43:00,46.0,32.0,-100.00,SW,225,6.0,8.0,59,0.00,,,0.42,1.000000,,2013-04-12 03:43:00,
2013-04-11 22:52:00,46.0,32.0,-100.00,SW,225,6.0,8.0,59,0.00,,,0.42,1.000000,,2013-04-12 03:52:00,
2013-04-11 23:23:00,44.0,32.0,-100.00,SW,227,6.0,11.0,62,0.00,,,0.34,1.000000,,2013-04-12 04:23:00,
2013-04-11 23:33:00,44.0,32.0,-100.00,SW,227,6.0,11.0,62,0.00,,,0.34,1.000000,,2013-04-12 04:33:00,
2013-04-11 23:43:00,44.0,32.0,-100.00,SW,227,6.0,11.0,62,0.00,,,0.34,1.000000,,2013-04-12 04:43:00,
2013-04-11 23:52:00,44.0,32.0,-100.00,SW,227,6.0,11.0,62,0.00,,,0.34,1.000000,,2013-04-12 04:52:00,